Simultaneous Nadir Overpasses (SNOs) Predictions

Prediction of SNOs between METOP-C and LANDSAT-8 Satellite Orbit:

Table of predicted SNOs for the next 14.0 days since TLE Epoch: 11/20/2020
Index Date (METOP-C) Time (METOP-C) Lat,Lon (METOP-C) SZA (METOP-C ) Date (LANDSAT-8) Time (LANDSAT-8) Lat,Lon (LANDSAT-8) SZA (LANDSAT-8 ) Distance(km) Time Diff (sec)
1 11/22/2020 21:43:55 81.07,-107.12 103.62 11/22/2020 21:44:39 81.07,-107.01 103.65 1.93 44
2 11/22/2020 22:34:34 -81.09, 60.84 76.30 11/22/2020 22:34:05 -81.09, 60.93 76.30 1.61 29
3 11/25/2020 17:18:19 81.07, -40.68 104.16 11/25/2020 17:18:55 81.07, -40.61 104.18 1.20 36
4 11/25/2020 18:08:58 -81.09, 127.25 75.76 11/25/2020 18:08:21 -81.09, 127.36 75.77 1.87 37
5 11/28/2020 12:52:42 81.07, 25.74 104.64 11/28/2020 12:53:10 81.06, 25.75 104.65 0.42 28
6 11/28/2020 13:43:21 -81.09,-166.36 75.28 11/28/2020 13:42:36 -81.09,-166.26 75.29 1.73 45
7 12/01/2020 08:27:05 81.08, 92.51 105.12 12/01/2020 08:27:25 81.08, 92.43 105.12 1.35 20
8 12/01/2020 09:17:44 -81.10, -99.60 74.81 12/01/2020 09:16:51 -81.11, -99.55 74.83 1.14 53
9 12/04/2020 04:01:29 81.08, 158.89 105.48 12/04/2020 04:01:41 81.07, 158.72 105.46 3.18 12
